GFSWCAN_sfc_dewp_021.txt.gz
Dewpoint
47 47 47 47 48 48 48 48 48 49 48 48 47 47 47 47 46 47 44 47 44 38 32 33 32 32 36 37 33 33 35 42 46 46 45 40 40 42 41 42 42 44 45 46 44 39 33 49 47 44 48 51 49 50
48 48 47 47 47 47 47 48 48 48 48 47 47 46 45 45 47 47 44 44 47 41 34 36 38 38 39 37 35 37 40 38 45 44 46 46 46 47 47 40 48 43 47 48 48 44 50 49 50 50 50 51 52 55
48 48 47 47 47 47 48 48 48 47 47 46 45 46 46 47 44 47 44 41 43 39 34 33 30 32 35 37 38 35 41 43 46 48 47 47 46 49 47 47 47 50 51 50 49 49 47 47 47 46 46 47 47 48
48 48 48 48 49 48 48 47 48 47 46 45 45 45 45 45 45 45 44 43 42 37 32 27 37 37 40 39 39 39 39 47 46 46 46 47 46 45 49 49 50 48 51 49 50 51 49 46 48 48 47 46 46 47
49 49 49 48 48 47 47 47 47 46 45 44 45 45 45 46 47 48 47 45 42 35 31 29 31 38 38 40 38 40 39 43 44 42 41 44 46 50 51 50 45 48 49 48 48 51 52 48 50 50 47 47 48 46
49 48 48 48 47 46 46 46 45 45 45 45 46 45 46 47 46 42 36 45 45 42 36 36 39 39 39 39 40 40 41 41 36 46 45 36 44 50 47 45 45 47 50 50 52 54 51 47 46 43 43 42 44 44
48 47 47 47 47 47 47 46 45 46 45 46 47 47 47 48 47 39 35 44 45 47 40 37 38 39 39 37 37 37 40 40 37 41 45 36 44 49 45 42 46 47 50 50 49 47 45 43 42 42 41 42 43 42
48 47 47 46 47 47 46 46 46 46 46 46 46 47 48 49 47 43 46 48 47 42 39 36 37 40 35 33 35 37 37 37 36 33 42 43 44 45 42 45 46 46 47 47 47 47 48 47 45 45 44 44 43 42
47 47 47 47 47 46 46 46 46 45 45 45 46 46 44 42 38 42 49 49 45 38 35 38 37 35 37 32 36 37 36 31 34 45 42 46 42 41 45 46 46 46 46 47 48 48 49 47 47 47 45 44 44 44
47 47 47 48 47 47 47 46 46 46 47 46 42 40 39 41 47 46 44 39 37 38 40 37 39 36 35 36 34 35 36 31 42 44 44 45 42 46 48 49 49 48 46 45 44 45 46 47 47 48 47 47 47 47
49 49 48 48 47 47 47 47 47 47 46 43 42 42 45 47 41 39 36 37 38 36 40 40 39 38 39 36 35 37 33 33 33 38 40 42 39 45 48 48 50 49 49 49 49 50 50 49 49 48 49 50 50 51
48 49 49 49 48 47 47 48 48 45 45 45 45 46 45 41 37 33 33 34 35 34 38 41 40 41 39 39 36 36 32 36 37 44 40 39 44 47 48 48 48 49 49 49 49 50 50 51 51 51 51 51 51 51
49 48 49 49 48 48 48 48 48 48 48 47 43 39 38 36 35 33 34 35 35 37 38 43 37 44 40 37 37 37 33 37 44 39 38 42 47 48 49 47 46 47 46 46 47 48 49 49 51 51 52 52 53 51
48 47 48 49 48 48 48 48 48 47 45 41 39 35 37 36 38 38 38 39 41 42 40 40 41 41 39 36 39 33 40 42 36 34 37 44 47 46 47 46 46 46 46 46 46 46 47 48 49 51 51 53 52 52
47 46 47 47 49 49 49 48 47 47 44 40 39 33 35 38 41 42 43 43 43 45 42 39 38 38 36 35 40 37 36 34 37 38 42 45 47 46 47 47 47 47 48 47 47 46 47 47 48 49 51 53 54 54
47 44 45 47 48 49 48 45 45 47 44 40 40 38 40 40 39 40 40 40 42 42 42 39 36 34 35 39 37 38 34 36 40 43 45 47 47 47 48 48 48 49 49 48 48 48 48 48 49 50 51 52 53 54
45 43 46 47 49 49 46 44 45 43 40 39 40 42 41 41 40 37 38 38 40 40 38 39 37 36 38 36 37 41 39 42 43 45 47 48 49 49 49 49 48 49 49 48 50 50 50 50 50 49 49 51 53 53
42 43 47 49 49 45 45 44 42 38 36 38 39 38 40 43 40 37 38 40 40 40 43 41 42 38 37 36 38 41 43 44 46 47 47 48 50 50 49 49 49 49 49 49 49 49 49 49 48 47 51 51 49 51
46 47 48 49 47 45 42 41 41 36 37 40 42 41 40 40 40 41 40 41 40 41 42 41 38 37 40 44 42 43 44 45 45 47 47 49 50 50 50 50 50 50 50 50 49 46 46 48 45 44 45 47 45 46
48 47 48 48 46 44 39 41 42 38 38 40 38 38 40 39 40 39 39 40 40 41 40 39 39 43 43 44 44 45 46 48 49 46 45 47 48 50 50 50 49 50 48 48 45 43 45 44 41 40 40 43 43 44
46 45 46 45 44 43 42 40 39 41 41 40 41 41 39 40 38 39 40 40 40 40 38 40 41 43 46 46 46 49 50 50 50 50 49 48 48 49 48 48 46 41 38 37 36 36 37 37 40 41 41 41 41 41
46 46 44 43 40 38 39 40 40 40 39 37 38 39 39 39 40 42 41 39 40 42 43 44 45 44 45 47 48 49 50 51 53 51 46 47 47 49 44 41 35 34 34 34 33 32 33 34 34 34 35 36 36 36
45 43 42 40 36 37 36 40 38 39 37 37 38 37 38 40 42 44 42 42 43 45 46 47 49 50 49 51 51 50 51 51 49 49 48 48 48 45 35 35 34 33 31 30 31 29 31 36 35 33 34 34 34 34
45 40 38 37 37 36 39 37 39 38 39 38 38 38 39 41 44 44 41 44 47 49 51 50 51 50 50 48 46 43 47 49 42 40 45 42 34 35 34 32 31 30 31 29 28 29 29 33 34 31 32 32 32 34
37 37 38 34 38 37 36 37 37 38 37 39 39 40 41 43 42 41 42 46 48 49 50 50 50 47 44 35 33 34 40 35 34 34 36 38 35 34 33 31 31 31 30 29 28 30 32 32 32 31 30 32 36 39
35 38 37 38 39 38 38 37 37 37 37 37 39 42 43 42 38 37 43 47 46 47 47 46 41 37 35 33 31 31 32 34 34 30 34 34 34 30 29 28 26 27 29 31 31 31 31 31 31 31 30 31 37 38
38 40 42 42 41 40 40 41 41 40 38 38 40 41 40 36 36 43 50 48 45 42 41 37 35 33 31 31 32 32 32 33 35 35 34 32 31 31 29 28 28 29 30 31 32 33 33 32 31 30 31 31 31 35
42 43 41 41 39 40 40 40 40 40 41 42 41 39 38 38 37 40 46 43 44 45 33 32 32 31 30 31 30 29 29 29 30 30 29 30 29 29 30 29 31 34 32 33 33 34 33 32 32 32 33 33 36 39
42 45 44 41 40 42 41 40 37 38 43 42 39 38 37 38 38 36 35 33 33 31 30 29 30 29 29 30 30 28 28 28 28 28 27 26 26 26 29 30 31 32 31 32 36 35 35 33 33 32 32 32 33 33
44 46 43 41 39 39 40 40 39 38 38 39 40 41 42 42 44 44 38 34 32 30 30 29 29 28 27 26 26 27 26 27 28 28 27 27 28 30 31 31 31 31 32 31 31 30 33 29 29 26 26 25 25 25
49 46 43 42 44 45 44 43 43 42 42 43 44 44 44 43 45 46 44 42 38 31 29 28 26 26 26 25 26 25 24 26 28 27 26 25 24 26 26 25 26 27 26 25 25 24 24 24 24 24 23 23 23 23
47 44 45 42 44 48 49 47 47 45 45 46 45 46 45 45 42 46 50 47 40 28 31 28 25 24 25 25 26 26 29 25 25 25 25 24 24 24 23 22 23 23 23 22 22 22 22 22 21 21 21 21 22 22
47 47 46 45 46 45 48 46 47 44 45 44 44 44 44 42 40 46 50 40 31 27 28 28 25 25 27 26 26 25 27 25 27 30 31 31 31 28 22 21 22 22 21 21 20 20 21 21 21 22 22 22 23 24

GFSWCAN_sfc_dewp_024.txt.gz
Dewpoint
49 49 49 48 47 47 47 47 48 48 48 48 48 48 47 47 47 49 47 48 44 39 38 37 32 30 32 32 34 34 32 40 42 44 43 37 34 33 30 36 41 40 38 34 36 37 35 47 46 41 51 54 51 50
49 49 49 48 48 48 48 47 47 48 48 48 46 46 46 46 45 47 44 48 51 42 39 39 38 35 34 32 29 33 33 39 40 42 45 45 44 43 40 36 45 37 38 35 42 41 50 48 51 51 51 54 56 53
49 49 49 49 49 49 49 49 48 48 47 47 45 45 45 46 47 47 47 47 44 41 38 35 33 32 34 33 35 33 35 36 44 42 42 45 46 47 44 41 42 49 49 44 47 48 49 47 47 48 49 50 52 55
48 49 49 49 48 48 47 47 47 46 45 45 45 45 45 44 45 45 46 49 46 41 34 26 28 32 35 33 31 33 36 47 47 46 45 45 46 46 50 49 50 49 51 48 48 49 47 49 50 47 46 48 49 51
48 48 48 48 48 47 47 47 46 45 45 44 44 45 45 46 47 48 47 44 44 40 30 28 30 36 36 32 37 36 35 38 45 43 45 43 47 48 51 50 46 47 49 45 42 48 50 51 51 49 49 48 49 50
49 49 48 48 48 48 47 46 46 46 46 46 45 47 46 46 46 43 35 45 45 45 38 33 36 39 41 40 39 38 39 38 45 43 45 47 46 49 49 45 45 49 52 51 52 53 52 51 48 44 45 45 45 43
49 48 47 47 47 47 47 46 46 46 46 46 47 47 47 47 46 41 35 43 45 48 38 37 40 40 40 40 39 39 42 39 38 45 46 46 49 47 44 42 46 49 52 54 53 51 49 49 49 48 42 41 43 43
47 47 47 47 47 47 47 47 46 46 46 46 46 46 48 49 47 44 49 48 46 43 42 36 38 42 38 36 35 40 43 45 40 40 47 47 49 43 43 45 47 49 50 49 49 49 49 50 50 50 43 42 42 42
48 48 48 48 48 48 47 47 47 47 47 47 47 47 43 41 38 43 48 49 49 42 34 37 37 37 36 34 36 37 40 35 35 46 46 47 44 42 46 47 48 48 48 49 51 50 50 49 49 48 44 43 43 44
49 49 49 48 49 48 48 47 48 49 49 47 44 41 39 42 48 47 45 40 38 40 41 37 36 36 36 34 35 41 35 36 42 45 48 43 43 47 49 50 51 50 50 51 48 47 47 49 48 46 45 46 46 45
49 49 49 49 49 48 48 48 49 49 47 42 40 41 43 47 42 40 38 37 40 37 38 39 39 38 37 40 38 36 35 35 39 43 43 40 39 47 48 50 52 51 48 49 49 49 51 48 47 45 47 47 47 49
49 49 49 49 49 49 49 49 49 43 43 44 46 47 45 42 38 35 35 35 36 38 41 41 40 39 38 40 37 36 33 36 35 46 42 38 43 49 50 49 49 49 48 48 49 49 49 49 48 49 49 49 49 50
49 48 48 49 49 49 49 49 49 48 47 48 44 41 41 40 37 36 33 35 39 40 39 42 39 40 39 38 37 37 34 38 41 37 38 43 47 49 50 48 46 46 46 46 47 48 48 48 50 50 51 50 51 51
47 47 47 47 48 48 50 50 49 47 46 42 39 35 36 36 39 39 40 40 43 43 45 44 43 38 38 37 37 35 40 40 34 33 39 45 47 48 47 47 46 45 45 43 42 43 44 45 47 49 51 52 52 52
47 47 47 46 47 49 50 48 46 48 45 40 39 33 38 39 41 39 40 40 40 42 43 41 37 36 36 36 40 39 35 35 37 39 43 45 47 48 48 47 47 46 45 44 43 43 43 43 43 45 47 49 51 52
48 47 44 46 49 49 49 47 47 47 45 44 41 39 40 37 36 36 38 38 40 40 42 40 35 33 37 39 37 37 35 37 41 44 46 48 49 50 50 49 49 49 47 46 46 46 44 45 47 47 47 47 47 49
48 39 47 48 49 49 47 46 46 42 42 39 40 37 37 38 37 36 38 39 41 39 38 37 36 37 38 35 38 40 40 44 47 47 48 51 51 51 51 49 49 49 50 49 49 49 49 48 47 44 46 49 47 49
40 43 48 48 49 47 46 44 42 37 35 35 34 38 40 39 38 39 40 41 40 41 40 40 40 38 36 36 39 44 45 48 51 48 47 51 52 52 50 50 51 51 50 51 50 49 47 47 44 40 44 48 46 46
46 47 48 49 47 46 42 41 43 36 35 38 37 37 38 37 40 41 40 42 42 42 40 37 37 38 41 45 45 46 46 47 49 46 46 51 51 52 52 52 52 52 53 51 50 44 44 49 46 41 38 38 36 39
49 48 48 48 47 44 37 41 42 36 35 36 37 38 38 38 40 39 40 39 38 38 37 37 40 44 45 44 44 47 47 47 47 45 44 47 51 51 51 50 48 49 44 44 41 39 40 40 39 40 39 40 39 38
47 46 47 45 43 43 41 40 39 40 39 36 37 39 38 40 41 41 41 40 39 40 40 45 44 44 47 47 47 48 51 52 50 52 51 52 53 48 43 40 40 38 37 36 35 36 36 35 35 35 36 37 36 38
46 46 44 43 41 40 40 40 40 40 38 37 37 39 40 41 43 43 44 43 43 45 46 47 49 49 51 51 54 53 54 53 54 56 49 50 46 49 42 38 36 35 34 33 33 32 33 33 33 33 33 34 34 34
47 45 43 42 39 39 38 41 39 40 39 39 39 38 40 42 45 48 44 45 47 50 51 50 51 50 45 45 45 47 49 49 49 45 48 45 43 39 36 35 33 33 32 32 32 30 31 33 33 30 31 31 32 31
45 43 42 42 41 40 41 40 41 42 42 40 40 40 42 44 47 45 42 45 50 52 53 49 44 37 38 44 35 36 36 35 33 34 36 35 34 36 35 33 31 30 31 30 29 29 29 30 32 29 29 29 29 31
40 40 41 38 43 41 38 39 39 40 38 41 40 41 42 45 42 41 41 46 49 47 42 39 37 36 35 34 33 34 38 32 31 31 34 33 33 32 33 31 31 30 29 29 29 29 29 30 30 30 30 29 31 32
37 42 40 41 43 41 41 40 40 40 40 39 40 42 43 42 36 40 43 46 41 37 36 36 34 33 33 32 31 30 30 31 32 30 33 31 30 29 29 29 27 28 29 28 28 29 29 30 30 31 29 30 33 31
40 43 44 44 43 42 43 43 43 42 40 39 42 42 41 36 39 41 46 39 35 35 35 34 33 31 31 30 29 29 28 28 31 30 31 31 29 29 29 27 28 30 31 30 30 30 31 31 30 29 29 30 30 30
45 45 43 43 42 42 40 41 40 39 40 42 41 39 36 35 35 40 39 40 43 45 33 33 33 32 31 31 28 26 25 25 27 27 25 24 25 26 29 28 29 35 32 32 33 32 33 31 31 31 30 29 29 29
45 47 45 42 41 42 41 40 38 39 41 42 40 37 36 39 37 36 35 34 35 35 35 34 31 29 28 26 24 24 24 24 25 25 25 24 25 25 26 27 27 28 29 29 34 33 31 29 29 27 28 26 25 25
45 47 44 40 39 39 41 40 39 39 40 40 40 40 41 42 45 43 40 39 40 40 36 31 28 26 24 22 22 23 23 24 24 23 22 22 21 22 23 23 22 22 23 23 23 23 31 26 27 25 24 23 22 23
47 46 42 42 43 43 40 41 42 42 42 45 47 44 44 47 49 45 41 39 34 30 30 28 27 25 23 22 23 22 21 23 24 25 24 21 21 22 22 22 22 22 22 22 22 22 22 21 21 21 21 21 22 23
45 44 45 39 45 45 43 44 48 43 44 45 44 45 44 45 38 47 46 34 29 29 31 29 26 24 24 23 24 23 29 23 24 23 24 21 20 21 20 19 19 20 20 19 19 19 20 20 20 21 21 22 23 24
43 38 38 40 43 45 47 47 45 42 43 43 43 42 42 40 39 46 40 33 31 28 27 27 25 25 27 26 25 24 26 24 27 29 30 29 29 27 21 18 20 20 20 19 18 18 19 19 19 20 21 22 22 22

GFSWCAN_sfc_dewp_030.txt.gz
Dewpoint
50 50 50 50 50 50 50 50 49 49 49 48 48 47 47 47 48 48 46 51 46 38 36 35 34 32 30 28 27 37 35 36 31 34 36 35 36 32 29 31 33 33 31 27 32 33 30 36 39 37 51 54 52 51
51 51 51 50 50 50 50 50 49 48 48 48 47 47 46 46 47 47 47 51 50 43 38 38 38 37 35 33 31 30 35 38 38 39 42 43 39 44 41 33 34 31 31 32 36 35 53 51 53 53 51 51 53 52
51 51 50 50 50 50 50 49 47 47 47 47 46 46 46 46 46 46 48 49 47 43 37 34 33 36 37 35 32 30 29 31 35 43 43 44 41 45 43 43 44 44 48 42 39 40 47 48 49 50 51 52 52 52
50 49 49 49 49 50 49 48 48 47 47 47 46 46 46 46 46 46 49 51 46 43 37 29 30 31 33 35 34 32 30 34 45 40 39 44 42 45 45 47 46 50 48 47 46 52 50 49 49 50 51 53 54 57
50 49 49 50 50 50 49 48 48 47 47 47 47 47 46 47 47 45 43 45 50 42 36 32 35 33 31 38 30 33 31 32 46 40 42 43 47 46 49 48 47 49 48 46 51 51 52 52 51 52 52 53 54 56
50 50 50 50 50 50 50 49 48 48 47 47 47 46 47 47 48 43 43 49 50 48 40 35 32 34 41 48 36 31 31 30 30 42 42 45 48 45 44 44 46 48 50 54 52 54 53 52 49 47 46 47 50 51
50 50 50 50 50 50 50 50 49 49 50 49 49 49 48 48 43 44 42 44 45 46 40 35 36 41 43 45 30 33 32 30 32 42 44 44 47 47 47 42 47 51 53 55 55 54 52 50 44 44 43 42 43 42
50 50 50 50 50 50 50 50 50 50 50 50 50 50 50 49 47 42 47 47 47 44 41 35 36 39 46 42 33 36 38 38 38 38 46 45 48 48 42 44 49 51 51 54 54 51 48 49 47 47 47 44 43 43
49 49 49 49 50 50 50 50 50 50 50 50 51 51 46 45 42 48 48 48 49 44 37 36 35 35 44 45 45 46 48 40 46 44 45 46 44 42 45 48 47 48 49 49 48 47 46 47 49 51 52 47 47 48
50 49 49 49 49 49 49 49 49 50 50 50 47 44 44 50 51 51 48 42 40 40 38 33 38 38 42 43 40 39 44 43 40 43 47 41 41 46 50 49 49 49 48 49 47 48 49 47 46 48 51 52 52 49
49 49 49 49 49 49 49 48 50 51 49 44 41 39 44 50 47 46 42 39 39 36 39 39 42 43 47 43 39 43 42 44 37 42 40 37 37 44 49 50 50 49 49 48 48 48 49 51 51 50 52 53 54 50
49 49 49 49 50 49 49 49 50 46 44 44 44 45 45 47 45 40 39 41 41 40 44 44 46 48 47 49 44 46 42 43 37 46 39 36 40 48 50 51 50 51 48 47 47 47 49 49 51 54 53 52 49 53
49 49 49 49 50 50 49 49 50 49 48 48 46 44 40 42 39 36 34 38 39 43 42 43 45 47 49 49 46 45 40 41 46 39 35 38 45 48 50 53 53 54 54 51 50 51 51 52 52 53 53 55 53 53
49 49 49 49 50 49 48 49 50 49 48 42 40 39 41 38 40 39 40 42 43 41 41 43 48 45 48 46 46 41 44 43 38 35 34 40 46 48 51 51 46 49 50 47 46 45 48 49 52 52 53 53 52 53
49 49 48 49 49 48 48 49 50 49 46 42 41 39 39 41 37 40 46 47 49 50 43 43 40 42 40 42 46 42 38 36 37 35 40 46 48 50 51 50 47 47 47 45 42 43 46 47 46 49 52 51 52 52
49 48 47 49 49 49 48 49 50 49 47 42 38 37 36 39 36 37 39 35 38 45 43 40 39 40 40 42 39 39 38 37 41 46 49 50 50 52 52 51 51 52 48 48 48 49 49 48 49 50 50 49 50 51
49 43 49 49 49 49 49 47 42 34 33 33 34 37 38 39 42 36 38 36 38 40 39 40 40 39 40 38 39 42 39 43 46 49 51 51 51 52 52 54 51 51 52 50 50 51 49 46 49 50 51 49 49 48
46 46 49 49 49 48 45 42 40 32 30 32 33 38 42 43 44 44 41 41 41 41 40 39 41 40 40 39 41 45 48 50 52 52 54 55 55 56 54 54 53 51 51 52 49 52 48 47 51 45 49 50 50 49
46 47 49 50 49 46 39 37 41 31 31 34 39 41 41 44 44 42 43 43 43 41 40 40 41 41 43 47 48 50 51 52 49 54 55 56 56 53 53 52 53 51 50 50 48 44 42 48 42 39 39 43 40 41
49 50 50 50 48 44 36 38 39 34 33 38 41 41 44 44 44 43 43 43 42 42 42 43 45 49 50 52 54 54 53 55 53 52 52 50 49 49 49 47 44 53 48 47 41 38 38 37 36 38 36 39 36 36
48 49 49 47 44 42 39 37 36 38 38 43 42 43 48 47 43 41 40 42 42 44 45 48 49 51 53 52 53 53 53 46 52 43 44 51 51 44 42 40 42 37 36 35 34 34 34 33 33 32 31 31 31 31
48 49 48 47 43 42 41 42 39 40 43 43 41 43 46 44 42 42 42 42 45 49 52 41 40 40 43 47 45 47 47 50 50 44 44 43 37 36 35 34 34 34 34 33 31 30 31 31 31 30 31 31 32 30
49 49 47 45 42 42 41 43 41 41 39 40 44 42 43 45 47 46 45 48 50 54 52 46 50 51 47 48 46 44 45 44 37 36 37 33 37 36 34 35 33 33 32 32 31 29 31 34 32 31 32 31 31 31
47 47 45 44 43 42 42 40 42 40 40 39 42 41 42 44 43 44 41 45 48 42 42 47 42 39 39 45 35 36 36 33 31 32 33 31 29 31 32 31 30 31 32 32 31 29 29 30 32 30 30 30 30 30
44 43 45 41 44 41 38 37 38 37 38 38 39 42 45 48 41 41 40 37 38 39 40 40 38 37 35 33 31 31 38 27 27 29 29 29 29 29 29 29 29 30 30 29 28 28 30 30 29 30 31 32 32 31
40 42 42 39 40 39 38 37 38 39 39 37 37 41 47 46 39 39 41 38 37 38 38 37 37 36 35 33 28 26 26 25 27 25 27 26 27 27 27 26 25 26 26 28 29 29 30 31 30 30 29 30 32 29
40 42 43 45 42 41 41 40 40 41 40 41 44 42 39 36 37 39 40 37 36 38 40 40 35 31 27 24 24 25 25 24 26 24 24 25 24 23 22 21 22 22 23 24 24 25 25 26 25 24 24 25 25 25
43 44 45 45 42 44 42 38 38 38 39 44 43 36 35 35 35 37 38 40 38 37 36 34 30 26 23 23 22 22 22 21 22 22 20 20 20 20 23 21 23 32 24 24 24 24 24 23 22 22 22 23 25 26
48 48 45 43 39 37 39 39 38 38 39 38 40 38 38 41 40 40 39 38 38 36 30 28 27 25 22 21 21 20 21 22 22 21 20 18 18 18 20 20 20 20 20 20 29 27 23 21 23 22 23 23 23 24
42 50 47 38 36 36 39 38 39 39 40 41 41 40 39 39 40 41 39 33 30 27 28 26 25 23 20 19 20 21 20 23 23 19 17 17 17 19 20 19 19 19 20 20 19 19 30 24 23 21 22 21 22 21
36 35 37 35 38 37 40 42 40 40 39 38 39 38 38 42 46 40 33 31 28 26 25 24 22 23 23 22 22 20 19 22 24 22 21 19 19 21 22 21 21 21 21 21 21 20 21 21 20 21 20 21 23 22
35 33 36 36 37 40 42 43 44 42 40 41 40 40 43 45 43 43 33 31 26 24 29 26 23 23 25 24 23 22 30 23 22 22 23 21 23 24 22 21 22 22 21 20 20 20 21 21 20 20 20 20 20 20
34 33 33 33 38 40 44 45 44 42 40 42 42 40 38 38 35 33 31 31 28 25 25 23 24 26 29 27 25 24 27 25 26 28 28 27 28 28 24 23 24 23 21 20 19 19 19 20 20 22 21 22 22 22

GFSWCAN_sfc_dewp_033.txt.gz
Dewpoint
51 51 51 51 51 50 51 51 51 50 49 49 48 48 48 47 47 49 45 50 46 38 36 37 35 33 32 31 28 33 34 39 36 37 33 35 34 34 36 35 35 37 37 31 30 31 29 47 36 42 52 53 53 52
51 51 50 50 50 50 51 50 50 50 49 48 48 47 47 47 47 47 46 50 50 44 40 41 40 40 38 36 34 33 36 38 40 40 40 38 38 41 41 36 37 38 41 43 41 37 51 52 51 53 52 55 52 51
51 50 50 50 50 50 51 50 50 49 49 48 48 48 47 47 48 47 46 49 48 42 38 37 35 36 38 38 39 33 32 33 40 43 42 39 39 44 39 43 44 46 48 46 46 47 51 45 52 53 51 51 57 60
51 51 51 51 51 51 51 50 50 50 50 49 48 47 47 47 48 47 45 49 47 43 36 34 35 35 35 35 35 36 34 33 45 46 42 41 38 45 42 43 44 49 49 46 46 49 52 53 51 50 52 59 60 61
50 50 51 51 51 50 50 50 50 50 50 49 49 49 48 47 49 47 43 45 49 42 36 35 38 36 42 42 35 37 35 33 43 39 42 39 44 45 46 47 44 49 47 46 46 51 53 53 52 52 58 58 58 59
50 50 50 50 50 50 51 50 50 50 50 51 50 50 50 50 49 42 43 47 51 48 40 34 34 34 45 45 43 42 35 34 34 41 42 43 46 46 43 42 48 49 51 52 51 53 53 53 52 53 52 55 55 55
50 50 50 50 49 49 50 50 50 50 50 50 51 51 51 50 47 41 41 45 48 46 40 34 32 37 41 46 44 40 34 32 32 45 43 43 45 47 45 42 47 50 51 52 55 53 51 52 52 53 50 45 46 46
50 50 50 49 49 49 49 49 49 49 49 50 50 51 51 51 49 46 48 47 47 44 41 34 33 39 47 44 38 39 35 38 41 43 46 44 45 46 43 46 49 49 50 53 53 52 52 54 54 54 52 50 48 45
50 50 49 49 49 49 49 50 50 49 50 51 51 51 49 47 45 47 50 49 48 43 36 36 33 35 46 45 46 46 47 41 46 43 44 44 43 42 44 47 48 49 50 52 52 52 52 52 53 54 54 51 49 50
50 49 49 49 49 49 50 50 50 49 50 51 49 45 45 48 52 51 45 41 40 39 36 33 38 35 41 44 43 44 45 42 40 43 45 39 40 47 49 49 49 50 50 51 49 49 49 49 50 51 51 52 52 50
50 49 49 49 50 50 50 50 49 50 50 48 44 43 46 52 49 46 41 38 36 34 36 36 38 37 47 42 43 45 43 41 34 40 39 37 38 45 49 49 50 50 50 50 51 52 53 52 53 53 53 49 53 51
50 49 49 49 50 50 50 50 50 48 46 45 45 47 47 48 44 40 39 41 40 38 42 41 43 45 46 49 44 45 40 42 38 45 38 34 40 47 47 50 50 51 49 49 50 51 51 52 52 54 54 54 54 56
49 49 49 49 49 50 50 49 49 50 50 49 46 45 44 43 35 35 35 38 40 45 46 46 45 47 48 47 43 43 39 41 46 37 33 37 44 46 48 50 52 52 53 53 52 52 53 53 53 54 54 56 57 57
49 49 49 49 49 50 50 49 50 50 49 46 43 38 41 40 37 38 41 43 45 46 46 47 47 46 47 45 46 40 43 42 36 34 34 41 44 46 50 52 52 50 52 50 50 49 50 50 51 52 54 52 52 52
49 49 49 49 50 50 49 49 50 50 49 45 42 39 40 41 39 43 47 48 48 50 47 47 45 47 45 44 45 42 38 34 36 35 41 46 49 50 50 48 46 47 48 48 46 48 49 51 51 50 49 49 51 50
49 49 48 49 49 49 49 50 52 52 51 43 41 41 42 41 42 41 41 40 42 41 47 44 43 41 41 42 39 38 37 35 41 45 48 49 49 49 50 50 51 50 49 49 49 47 47 50 51 51 51 50 50 50
49 46 49 49 49 49 51 49 52 45 40 39 42 41 45 45 45 46 43 41 43 41 39 41 40 41 43 39 39 42 38 43 46 48 50 50 50 50 52 52 50 46 46 47 51 48 47 48 52 51 46 47 49 49
47 47 48 48 49 49 51 50 45 39 37 42 42 45 47 47 47 43 43 45 42 42 41 40 42 41 41 40 42 45 47 49 50 50 50 51 51 52 53 51 52 51 49 50 50 45 43 42 45 45 47 48 44 46
45 47 48 49 49 48 47 43 47 38 39 42 47 48 47 45 48 45 44 45 43 44 44 44 42 41 42 45 45 47 48 48 46 49 50 52 52 52 52 51 51 51 50 46 46 47 42 41 37 36 35 38 43 43
49 50 51 51 49 46 41 43 49 41 40 46 49 46 44 42 43 44 44 44 43 41 40 41 42 45 46 47 49 48 50 51 49 48 49 47 47 48 49 46 47 45 40 43 40 38 36 35 34 34 35 38 35 37
50 49 50 50 50 48 43 42 43 45 45 46 47 46 49 43 43 43 43 44 42 42 42 46 45 43 45 42 41 39 40 49 49 40 47 48 52 50 47 45 43 38 36 34 34 35 36 34 36 36 38 35 36 34
50 51 50 52 45 45 47 49 44 46 46 46 45 45 44 43 43 45 43 41 42 47 48 43 45 43 42 42 40 40 42 43 44 38 37 39 36 37 37 38 38 37 36 35 34 33 34 34 35 34 37 37 37 36
50 50 50 48 43 43 43 50 42 43 43 45 46 42 44 45 48 46 45 46 47 47 43 44 47 49 46 47 41 39 39 38 36 36 35 34 36 36 34 35 34 34 34 34 33 32 34 36 34 34 36 36 38 37
49 48 46 46 46 43 48 45 45 44 44 45 45 43 44 46 44 42 40 41 42 42 41 45 42 40 40 42 35 33 33 31 31 33 32 31 33 34 33 31 29 29 30 31 31 33 34 34 35 34 34 34 34 33
43 44 46 40 50 44 42 41 42 42 40 40 41 43 45 48 43 40 39 37 39 40 41 42 40 40 36 31 31 31 33 28 27 29 30 33 30 28 27 27 27 25 26 28 28 29 30 32 30 29 29 30 31 30
38 45 43 40 43 43 40 39 40 41 42 41 42 47 48 43 38 38 40 39 39 39 40 40 37 32 30 30 28 27 26 27 27 25 27 25 25 24 24 24 23 24 26 27 26 25 27 26 25 25 24 25 29 28
43 45 47 49 47 46 43 41 40 38 38 40 44 42 42 35 35 38 40 43 40 41 44 40 35 28 26 26 26 27 26 26 27 25 26 23 23 24 23 23 23 25 25 24 24 26 25 23 22 23 23 26 27 27
46 47 47 46 44 43 40 38 36 37 37 43 40 35 35 34 35 37 39 43 43 42 40 38 30 26 24 25 24 24 25 24 24 22 21 21 22 22 24 22 25 31 26 27 26 25 23 23 23 23 24 24 25 25
49 50 48 41 38 37 37 37 36 37 39 38 38 37 37 39 40 41 42 40 39 38 31 28 27 25 24 25 25 23 24 23 21 19 18 18 19 20 23 22 22 23 23 23 30 26 26 27 25 24 24 24 24 24
45 48 47 37 35 36 38 38 38 38 39 39 39 40 38 40 40 43 37 35 33 29 27 27 25 25 23 22 22 22 24 23 22 21 19 19 20 22 23 23 23 22 23 23 22 23 29 25 26 24 24 23 24 23
45 45 37 37 37 40 39 40 40 39 38 38 39 38 39 42 45 41 39 34 29 27 26 25 23 24 24 23 23 21 21 23 24 24 22 21 22 24 25 24 23 23 23 22 22 22 21 22 22 22 22 22 23 23
40 35 35 37 39 41 42 42 42 41 39 42 43 41 42 44 43 38 33 31 26 25 31 26 26 25 27 25 25 24 30 23 23 24 25 23 24 25 24 24 24 24 24 21 21 20 21 22 22 22 22 23 24 24
34 34 34 36 40 42 45 45 43 40 41 45 42 42 39 37 33 34 34 33 31 27 26 25 26 29 33 28 26 26 29 26 27 29 28 29 29 29 26 24 25 25 23 23 22 22 22 24 23 25 25 26 27 27